Вернуться в каталог

KUIPER-00512

АктивенСвязьLEO
NORAD 68889·PAYLOAD·🇺🇸 United States

Запущен Apr 28, 2026 с Cape Canaveral Space Force Station

Loading…

Ближайшие Пролёты (ближайшие 24 часа)

TLE

СвежийSource: CelesTrak SupGP

Эпоха: Sep 14, 2026, 22:27 UTC

1 68889C 26095AB  26257.93589120 -.00017077  00000+0 -22356-2 0  2570
2 68889  51.9007 211.3022 0000872  72.0845  38.0389 14.79946317    10

Отслеживайте KUIPER-00512 в реальном времени с AllMySat

Download on the App Store